Location: Newark
(21.1200°N, 73.4000°E)
Time: 06:04:24
(UTC+00:00)

Explorer 11/Cluster Stage 4 - Pass Details

Date: 22 January 2020
Orbit: 467 x 1259 km, 28.8° (Epoch: 19 February)

Event Time Altitude Azimuth Distance (km) Brightness Sun altitude
Rises 16:16:19 0° 285° (WNW) 3,228 10.4 -47.6°
Enters shadow 16:17:38 - 283° (WNW) 2,730 9.9 -47.9°
Reaches altitude 10° 16:19:09 10° 279° (W) 2,159 - -48.2°
Maximum altitude 16:23:48 41° 209° (SSW) 869 - -49.3°
Drops below altitude 10° 16:27:40 10° 138° (SE) 1,782 - -50.2°
Sets 16:29:48 0° 130° (SE) 2,597 - -50.7°
